CZ-6A R/B, 63605

Orbit data source: Space-Track

CZ-6A R/B, 63605 is space debris in SSO originally from a launch on Fri, 18 Apr 2025 UTC launched from the Taiyaun Space Center, China (TSC). Debris objects in space refer to the collection of defunct objects orbiting the Earth. Examples of debris include non-operational satellites, rocket bodies, and fragments generated from explosions, collisions, or faulty payload assembly.

Loading next visibility...
Identifier
63605, 2025-078G
Orbit
SSO
Country
Flag of CNCN / PRC
Related business
Manufacturer
SAST
Mission
Spacecraft
Bus & Motor
CZ-6A STAGE 2, YF-115
Mass
~6,000 kg wet, ~6,000 kg dry
Launch date (UTC)
2025-04-18 (10 months ago)
Launch vehicle
Unknown
Launch site
Taiyaun Space Center, China (TSC)
Object type
Payload
Rocket body
Debris
Shape & HBR
Unknown shape, 4.4 m
Radar Cross Section
Large (>1 m²)

Expand to show TLE details & history
Last TLE update: 11 hours ago

TLE from 11 hours ago
0 CZ-6A R/B
1 63605U 25078G   26034.52782725 -.00000088  00000-0 -28491-4 0  9991
2 63605  99.6888  62.6096 0106892  50.9563 310.1050 13.94788423 40488
Epoch: 2026-02-03T12:40Z
TLE epoch observation values (Epoch: 2026-02-03T12:40:04.274Z)
Latitude
-0.0001°
Longitude
98.88434°
Altitude
865.03 km
Speed
7.445 km/s
True Right ascension
04h 10m 26s
True Declination
0° 00' 00"
Sunlit
Object was in daylight at epoch
Visualization orbit readout
Latitude
Unknown
Longitude
Unknown
Altitude
Unknown
Speed
Unknown
Apparent Right ascension
Unknown
Apparent Declination
Unknown
Sunlit
N/A
Visualization observer readout
Local Sidereal Time
01:13:39
Azimuth
Unknown
Elevation
Unknown
Doppler factor
Unknown
Orbital elements
Apogee altitude
987.034 km
Perigee altitude
831.244 km
Semi-major axis
7,287.276 km
Eccentricity
0.01069
Inclination
99.6888°
RAAN
62.6096°
Arg. of periapsis
50.9563°
True anomaly
309.16003°
Mean anomaly
310.105°
Eccentric anomaly
309.63333°
Mean motion
3.48895 °/min
Orbital period
103.18 mins
BSTAR
-0.000028491
Loading maneuver chart data...
Computing Atmospheric mass density...
Loading historical data...
Loading historical data...
Loading historical data...
Loading historical data...
Loading historical data...
Loading historical data...
Loading historical data...

Documentation

Showing up to 5 results
|